Regional Weather Roundup
Issued by NWS

Home | Current Version | Previous Version | Text Only | Print | Product List | Glossary Off
Versions: 1 2 3 4 5 6 7 8 9 10 11 12 13 14 15 16 17 18 19 20 21 22 23 24 25 26 27 28 29 30 31 32 33 34 35 36 37 38 39 40 41 42 43 44 45 46 47 48 49 50

844
ASUS43 KMKX 022121
RWRWI

WISCONSIN REGIONAL WEATHER ROUNDUP
NATIONAL WEATHER SERVICE MILWAUKEE/SULLIVAN WI
400 PM CDT MON MAY 02 2016

NOTE: "FAIR" INDICATES FEW OR NO CLOUDS BELOW 12,000 FEET WITH NO
SIGNIFICANT WEATHER AND/OR OBSTRUCTIONS TO VISIBILITY.

WIZ001-002-006>008-014>016-023>028-022200-
NORTHWEST WISCONSIN

CITY           SKY/WX    TMP DP  RH WIND       PRES   REMARKS
SUPERIOR ARPT  SUNNY     64  37  37 E8        30.01F
ASHLAND        SUNNY     64  38  38 NE9       30.04F
HAYWARD        MOSUNNY   63  27  25 E3        30.01F
SIREN          PTSUNNY   66  28  24 CALM      30.01F
CUMBERLAND     SUNNY     61  28  29 CALM      30.02F
RICE LAKE      MOSUNNY   64  28  25 CALM      30.03F
CHETEK         PTSUNNY   63  37  37 N5        30.02F
LADYSMITH      SUNNY     64  33  31 SW9       30.03F
EAU CLAIRE     PTSUNNY   64  31  28 S7        30.02F
MENOMONIE      MOSUNNY   71  34  26 SW6       30.03F
NEW RICHMOND   MOSUNNY   65  32  29 SW6       30.03F
OSCEOLA        SUNNY     66  33  29 SW8       30.04F
$$

WIZ003>005-009-010-017-018-022200-
NORTH CENTRAL WISCONSIN

CITY           SKY/WX    TMP DP  RH WIND       PRES   REMARKS
MANITOWISH WTR CLOUDY    60  31  33 CALM      30.01F
ARBOR VITAE    MOSUNNY   62  29  29 W6        30.01F
WOODRUFF       MOSUNNY   62  29  29 W6        30.01F
RHINELANDER    PTSUNNY   63  29  27 CALM      30.02F
EAGLE RIVER    PTSUNNY   60  26  26 N3        30.01F
LAND O LAKES   CLOUDY    61  25  25 CALM      30.02F
PHILLIPS       PTSUNNY   61  31  33 S5        30.01F
TOMAHAWK       PTSUNNY   62  30  30 SW3       30.02F
MEDFORD        PTSUNNY   60  35  39 S6        30.02F
MERRILL        CLOUDY    61  33  34 NW3       30.03F
$$

WIZ029-030-035-036-043>047-022200-
CENTRAL WISCONSIN

CITY           SKY/WX    TMP DP  RH WIND       PRES   REMARKS
WAUSAU         PTSUNNY   63  32  31 SW5       30.01F
MOSINEE        PTSUNNY   61  32  33 NW3       30.03F
MARSHFIELD     PTSUNNY   61  31  32 CALM      30.03F
STEVENS POINT  PTSUNNY   60  30  32 E6        30.03S
WAUPACA        SUNNY     67  28  23 E6        30.01F
WAUTOMA        MOSUNNY   64  29  26 CALM      30.02F
WISC RAPIDS    SUNNY     62  27  26 N5        30.04F
CAMP DOUGLAS   PTSUNNY   63  34  34 N2        30.02F
$$

WIZ011>013-019>022-031-037>040-048>050-022200-
NORTHEAST WISCONSIN

CITY           SKY/WX    TMP DP  RH WIND       PRES   REMARKS
ANTIGO         CLOUDY    62  33  33 NW5       30.02F
SHAWANO        MOSUNNY   65  29  25 CALM      30.01F
OCONTO         SUNNY     62  30  30 SE13      30.02F
STURGEON BAY   SUNNY     57  34  41 E9        30.06F
GREEN BAY      SUNNY     63  32  31 SE7       30.03F
MANITOWOC      SUNNY     60  32  34 MISG      30.04F
APPLETON       MOSUNNY   63  27  25 N8        30.02F
CLINTONVILLE   SUNNY     64  30  27 W5        30.01F
OSHKOSH        SUNNY     62  32  32 SE6       30.03F
$$

WIZ032>034-041-042-053>061-022200-
SOUTHWEST WISCONSIN

CITY           SKY/WX    TMP DP  RH WIND       PRES   REMARKS
LA CROSSE      MOSUNNY   68  36  30 W9        30.03F
SPARTA         CLOUDY    63  34  34 N5        30.04F
VIROQUA        CLOUDY    60  34  37 CALM      30.04F
BOSCOBEL       CLOUDY    66  33  29 VRB7      30.04F
PRAIRIE DU CHI CLOUDY    61  34  37 NW3       30.04F
PLATTEVILLE    PTSUNNY   60  36  41 NE5       30.04F
$$

WIZ056-057-062-063-064-067-068-022200-
SOUTH CENTRAL WISCONSIN

CITY           SKY/WX    TMP DP  RH WIND       PRES   REMARKS
REEDSBURG      CLOUDY    62  35  36 NW5       30.03F
BARABOO/DELLS  CLOUDY    62  28  27 N5        30.03F
LONE ROCK      PTSUNNY   62  35  36 VRB5      30.04F
MINERAL POINT  PTSUNNY   63  30  29 NE3       30.04F
MADISON        PTSUNNY   61  33  35 N7        30.03F
MIDDLETON      PTSUNNY   64  34  32 NE8       30.03F
WATERTOWN      CLOUDY    60  38  44 NE6       30.03F
MONROE         CLOUDY    57  36  44 NE7       30.03F
JANESVILLE     CLOUDY    61  34  36 MISG      30.03F
$$

WIZ051-052-058>065-066-070>072-022200-
SOUTHEAST WISCONSIN

CITY           SKY/WX    TMP DP  RH WIND       PRES   REMARKS
MILWAUKEE      MOSUNNY   56  36  47 NE12      30.04F
WAUKESHA       MOSUNNY   57  30  35 NE17      30.04F
MILWAUKEE/TIMM SUNNY     59  28  31 NE12G17   30.04F
RACINE         SUNNY     57  34  41 N15       30.05F
BURLINGTON     MOSUNNY   60  31  33 E7        30.02F
KENOSHA        SUNNY     60  36  40 NE13      30.04F
FOND DU LAC    SUNNY     63  35  35 NE9       30.03F
SHEBOYGAN      SUNNY     59  36  42 NE14      30.04F
WEST BEND      MOSUNNY   61  32  33 NE7       30.03F
JUNEAU         MOSUNNY   60  39  44 E9        30.04F
$$

LSZ147-162-022200-
LAKE SUPERIOR

STATION/POSITION TIME  TEMP    WIND        PRES    WAVE
                       AIR SEA DIR/SP/G            HT/PER
                 (UTC) (F)     (DEG/KT/KT) (MB)    (FT/S)
W MID LAKE BUOY  2050   39 37   20/  2/  2 1018.6F   0
DEVILS ISLAND    2100   54     130/  9/  9 1017.4F
SAXON HARBOR     2040   47      CALM  /  2 1017.6F
$$

LMZ867-665-643>646-022200-
LAKE MICHIGAN

STATION/POSITION TIME  TEMP    WIND        PRES    WAVE
                       AIR SEA DIR/SP/G            HT/PER
                 (UTC) (F)     (DEG/KT/KT) (MB)    (FT/S)
CHAMBERS ISLAND  2000   57      60/  7/ 10 1017.6F
N MID LAKE BUOY  2050   42 40  210/  6/  6 1017.5F   0
NORTHPORT PIER   2000   47     140/  9/ 10 1017.3F
KEWAUNEE LAKESHO 2100   49      90/  2/  4 1016.9F
SHEBOYGAN LAKESH 2100   48     360/  8/  9 1017.8F
PORT WASHINGTON  2000   51      40/  7/ 10 1018.6F
S MID LAKE BUOY  2050   42 41  340/  4/  6 1017.5F   1/ 3
KENOSHA   LAKESH 2100   47      80/  5/  8 1017.3F
$$

TC  - TEMPERATURE IN CELSIUS
VSB - VISIBILITY IN STATUTE MILES
WCI - WIND CHILL INDEX
HX  - HEAT INDEX





USA.gov is the U.S. government's official web portal to all federal, state and local government web resources and services.